[[[{"header":{"parameterUnit":"kt","parameterCategory":2,"dx":1,"dy":1,"la1":30.253999710083008,"la2":30.299108505249023,"lo1":-89.0895004272461,"lo2":-89.04439544677734,"nx":28,"ny":28,"refTime":"2022-09-30T21:00:00:Z","depth":0,"parameterNumber":1,"parameterNumberName":"U-component_of_WINDS"},"data":[-0.6,-0.5984,-0.5963,-0.5935,-0.5911,-0.5888,-0.5872,-0.585,-0.5826,-0.5795,-0.5772,-0.5748,-0.5715,-0.5682,-0.5656,-0.5645,-0.5636,-0.5646,-0.5632,-0.5607,-0.5602,-0.5598,-0.5601,-0.5644,-0.5644,-0.566,-0.5661,-0.5661,-0.5984,-0.5961,-0.594,-0.5905,-0.5887,-0.5864,-0.5834,-0.582,-0.5799,-0.5769,-0.5746,-0.5716,-0.5689,-0.5651,-0.5621,-0.5611,-0.5599,-0.5605,-0.5605,-0.56,-0.5573,-0.5577,-0.5615,-0.5615,-0.5615,-0.5615,-0.5615,-0.5615,-0.595,-0.5941,-0.5908,-0.5885,-0.5861,-0.5838,-0.5825,-0.5796,-0.5774,-0.5741,-0.5719,-0.5694,-0.5659,-0.5612,-0.559,-0.5569,-0.5558,-0.5557,-0.5557,-0.5558,-0.5562,-0.5543,-0.5562,-0.5562,-0.5562,-0.5562,-0.5562,0,-0.5918,-0.5902,-0.588,-0.5852,-0.5833,-0.5809,-0.5783,-0.5774,-0.5729,-0.5713,-0.5687,-0.5668,-0.563,-0.5602,-0.5569,-0.5545,-0.552,-0.5514,-0.5514,-0.5525,-0.554,-0.5533,-0.549,-0.5514,-0.5513,-0.5513,-0.5513,-0.5512,-0.5883,-0.5875,-0.583,-0.5817,-0.5798,-0.5778,-0.5761,-0.5722,-0.5706,-0.5667,-0.5661,-0.5632,-0.5608,-0.5568,-0.5533,-0.5504,-0.5491,-0.5503,-0.5487,-0.5498,-0.5492,-0.5494,-0.5492,-0.5507,-0.5508,-0.5508,-0.5509,0,-0.5865,-0.583,-0.5811,-0.5766,-0.5755,-0.5748,-0.5709,-0.5698,-0.567,-0.5651,-0.5644,-0.56,-0.5575,-0.5537,-0.5499,-0.548,-0.5467,-0.5455,-0.5479,-0.5475,-0.5482,-0.5482,-0.551,-0.5512,-0.5466,-0.5466,-0.5467,0,-0.5822,-0.5812,-0.5761,-0.5752,-0.5739,-0.5701,-0.569,-0.5665,-0.5635,-0.5619,-0.5584,-0.557,-0.5524,-0.5504,-0.5475,-0.5457,-0.545,-0.5435,-0.5427,-0.5438,-0.5441,-0.5429,-0.5428,-0.541,-0.541,-0.541,-0.541,0,-0.5798,-0.5759,-0.5744,-0.5729,-0.568,-0.5673,-0.5652,-0.5618,-0.5602,-0.5575,-0.5564,-0.5534,-0.5518,-0.5495,-0.546,-0.545,-0.5436,-0.5416,-0.5421,-0.5422,-0.542,-0.5421,-0.5454,-0.541,-0.541,-0.541,-0.541,0,-0.5758,-0.5733,-0.5715,-0.5674,-0.5665,-0.5654,-0.5623,-0.5605,-0.5572,-0.5554,-0.5531,-0.5504,-0.5485,-0.5467,-0.544,-0.5438,-0.5424,-0.5407,-0.5407,-0.5404,-0.5386,-0.5411,-0.5445,-0.5448,-0.54,-0.5399,-0.5399,0,-0.5741,-0.5714,-0.5681,-0.5664,-0.5647,-0.561,-0.5596,-0.5568,-0.5543,-0.5523,-0.5495,-0.5472,-0.5451,-0.5439,-0.543,-0.54,-0.5402,-0.5398,-0.537,-0.5369,-0.5381,-0.5412,-0.5428,-0.5442,-0.5398,-0.5398,-0.5398,0,-0.5724,-0.5665,-0.5665,-0.5647,-0.5604,-0.5589,-0.5573,-0.5543,-0.5532,-0.5504,-0.549,-0.5456,-0.5439,-0.5419,-0.5394,-0.5387,-0.54,-0.5369,-0.5368,-0.5377,-0.5393,-0.5408,-0.5411,-0.5383,-0.5384,-0.5384,-0.5397,0,-0.5672,-0.5654,-0.5651,-0.5612,-0.5594,-0.5582,-0.5543,-0.5529,-0.5507,-0.5481,-0.5459,-0.5425,-0.5393,-0.5386,-0.5363,-0.536,-0.5354,-0.5336,-0.5317,-0.5338,-0.5341,-0.5342,-0.5316,-0.5315,-0.5314,-0.5314,0,0,-0.5665,-0.5638,-0.5603,-0.5587,-0.557,-0.5532,-0.5522,-0.5501,-0.5458,-0.5447,-0.5436,-0.5385,-0.5358,-0.5335,-0.5338,-0.5325,-0.5321,-0.5315,-0.5328,-0.533,-0.5332,-0.5336,-0.5338,-0.5312,-0.5312,-0.5312,-0.5312,0,-0.5639,-0.5614,-0.5605,-0.5582,-0.5546,-0.5519,-0.5517,-0.5474,-0.5457,-0.5435,-0.5404,-0.5385,-0.5345,-0.5321,-0.5304,-0.5317,-0.5294,-0.531,-0.5331,-0.5323,-0.5326,-0.5328,-0.5333,-0.5335,-0.531,-0.531,-0.531,0,-0.5616,-0.5585,-0.5577,-0.5537,-0.5512,-0.5495,-0.5466,-0.5448,-0.5434,-0.5392,-0.5371,-0.5347,-0.5311,-0.5295,-0.5286,-0.5275,-0.5271,-0.5265,-0.5268,-0.5266,-0.5257,-0.526,-0.5263,-0.5225,-0.5224,-0.5224,0,0,-0.5598,-0.5581,-0.5536,-0.5528,-0.5515,-0.5475,-0.5462,-0.5438,-0.5407,-0.5395,-0.5364,-0.5334,-0.531,-0.5296,-0.5271,-0.5259,-0.5248,-0.5256,-0.526,-0.5264,-0.5264,-0.5255,-0.5259,-0.5224,-0.5224,-0.5224,0,0,-0.5589,-0.5537,-0.5521,-0.5507,-0.5479,-0.5434,-0.543,-0.5408,-0.5382,-0.5379,-0.5337,-0.5328,-0.5312,-0.5289,-0.5287,-0.5264,-0.5245,-0.5245,-0.5279,-0.5284,-0.5288,-0.5294,-0.5252,0,0,0,0,0,-0.5543,-0.5544,-0.5529,-0.5521,-0.547,-0.5442,-0.5435,-0.5401,-0.5389,-0.5387,-0.5357,-0.5333,-0.5279,-0.5277,-0.5269,-0.5271,-0.5218,-0.5219,-0.522,-0.5261,-0.5266,-0.527,0,0,0,0,0,0,-0.554,-0.553,-0.5529,-0.5484,-0.5472,-0.5442,-0.5414,-0.5405,-0.5389,-0.5385,-0.534,-0.5332,-0.5302,-0.5278,-0.5272,-0.5275,-0.5254,-0.5218,-0.5219,-0.522,-0.5263,-0.5267,-0.527,0,0,0,0,0,-0.5537,-0.5529,-0.5456,-0.5484,-0.5474,-0.5429,-0.5414,-0.5406,-0.5393,-0.5347,-0.5338,-0.5369,-0.5303,-0.5295,-0.5274,-0.5279,-0.5258,-0.5256,-0.5219,-0.5219,-0.522,-0.5265,0,0,0,0,0,0,-0.5535,-0.5521,-0.5453,-0.5449,-0.5481,-0.543,-0.5421,-0.5407,-0.5355,-0.5347,-0.5374,-0.5371,-0.5304,-0.5297,-0.5291,-0.5282,-0.5262,-0.526,-0.5258,-0.5219,-0.522,-0.522,0,0,0,0,0,0,-0.5525,-0.5518,-0.5451,-0.545,-0.5445,-0.5431,-0.5423,-0.54,-0.5355,-0.5385,-0.5381,-0.5373,-0.5312,-0.5299,-0.5294,-0.526,-0.5265,-0.5262,-0.5261,-0.526,-0.522,-0.522,0,0,0,0,0,0,-0.5521,-0.5515,-0.5451,-0.5447,-0.5442,-0.539,-0.541,-0.5359,-0.5355,-0.5388,-0.5354,-0.5353,-0.5314,-0.5309,-0.5296,-0.5264,-0.5261,-0.5265,-0.5263,-0.5262,-0.5261,0,0,0,0,0,0,0,-0.5518,-0.5569,-0.548,-0.5444,-0.5441,-0.5407,-0.5406,-0.5405,-0.5355,-0.5355,-0.5354,-0.5354,-0.5278,-0.5275,-0.5273,-0.5268,0,0,-0.5265,-0.5264,0,0,0,0,0,0,0,0,-0.5571,-0.557,-0.548,-0.5479,-0.5478,-0.5407,-0.5406,-0.5405,-0.5355,-0.5355,-0.5354,-0.5354,-0.5277,-0.5275,-0.5273,0,0,0,0,0,0,0,0,0,0,0,0,0,0,0,-0.548,-0.5479,0,-0.5407,-0.5406,-0.5405,-0.5355,-0.5355,-0.5354,-0.5354,-0.5277,-0.5275,-0.5273,0,0,0,0,0,0,0,0,0,0,0,0,0,0,0,0,0,0,0,0,0,0,0,0,0,0,0,0,0,0,0,0,0,0,0,0,0,0,0,0,0,0,0,0,0,0,0,0,0,0,0,0,0,0,0,0,0,0,0,0,0,0,0,0,0,0,0,0,0]}],[{"header":{"parameterUnit":"kt","parameterCategory":2,"dx":1,"dy":1,"la1":30.253999710083008,"la2":30.299108505249023,"lo1":-89.0895004272461,"lo2":-89.04439544677734,"nx":28,"ny":28,"refTime":"2022-09-30T21:00:00:Z","depth":0,"parameterNumber":2,"parameterNumberName":"V-component_of_WINDS"},"data":[-6.0371,-6.0394,-6.0397,-6.0424,-6.043,-6.0449,-6.0456,-6.0465,-6.0472,-6.0493,-6.0505,-6.0507,-6.0513,-6.0526,-6.0537,-6.0537,-6.0543,-6.0551,-6.055,-6.0513,-6.0508,-6.0503,-6.05,-6.0552,-6.0552,-6.059,-6.059,-6.059,-6.035,-6.0358,-6.0372,-6.0388,-6.04,-6.0395,-6.0405,-6.0415,-6.0431,-6.0438,-6.0449,-6.0466,-6.0478,-6.048,-6.0492,-6.0502,-6.0499,-6.0505,-6.0505,-6.0506,-6.0466,-6.0462,-6.0508,-6.0508,-6.0507,-6.0507,-6.0507,-6.0507,-6.0314,-6.0326,-6.0337,-6.0352,-6.0359,-6.0369,-6.0381,-6.0384,-6.0396,-6.0409,-6.0406,-6.0422,-6.0428,-6.044,-6.0443,-6.0455,-6.0447,-6.0453,-6.0455,-6.0458,-6.0462,-6.0413,-6.0456,-6.0456,-6.0456,-6.0455,-6.0455,0,-6.0287,-6.0289,-6.0301,-6.0315,-6.0325,-6.0335,-6.0343,-6.035,-6.0348,-6.0357,-6.0371,-6.0378,-6.0392,-6.0403,-6.0412,-6.0413,-6.0406,-6.0403,-6.0408,-6.0412,-6.0416,-6.0417,-6.0355,-6.0402,-6.0401,-6.0401,-6.0401,-6.0401,-6.0252,-6.0265,-6.0275,-6.0283,-6.0288,-6.03,-6.0308,-6.0305,-6.0313,-6.0321,-6.0331,-6.0342,-6.0351,-6.0369,-6.0368,-6.0377,-6.0373,-6.0392,-6.0374,-6.0378,-6.0376,-6.0377,-6.0379,-6.0396,-6.0396,-6.0397,-6.0397,0,-6.0233,-6.0234,-6.0253,-6.026,-6.0262,-6.0275,-6.028,-6.0291,-6.029,-6.0305,-6.0307,-6.0306,-6.0317,-6.0313,-6.0323,-6.032,-6.0343,-6.0337,-6.0342,-6.0342,-6.036,-6.036,-6.0415,-6.0423,-6.0366,-6.0367,-6.0367,0,-6.0203,-6.0219,-6.022,-6.0231,-6.0249,-6.0245,-6.0263,-6.0264,-6.0268,-6.0279,-6.027,-6.028,-6.0272,-6.0281,-6.0276,-6.0293,-6.0294,-6.0294,-6.0292,-6.0296,-6.0296,-6.0299,-6.0297,-6.0286,-6.0285,-6.0285,-6.0285,0,-6.0174,-6.0191,-6.0209,-6.0212,-6.0219,-6.0227,-6.0229,-6.0233,-6.0238,-6.0245,-6.0249,-6.0255,-6.0259,-6.0264,-6.0259,-6.0247,-6.0278,-6.026,-6.0277,-6.0278,-6.0285,-6.0285,-6.0335,-6.0285,-6.0285,-6.0284,-6.0284,0,-6.015,-6.0158,-6.0183,-6.0189,-6.0193,-6.0203,-6.0211,-6.0218,-6.0222,-6.0221,-6.0225,-6.0217,-6.0229,-6.0213,-6.023,-6.0217,-6.0222,-6.0221,-6.0222,-6.0224,-6.0207,-6.0238,-6.0284,-6.029,-6.0226,-6.0225,-6.0225,0,-6.0118,-6.0141,-6.0138,-6.016,-6.017,-6.0161,-6.0172,-6.0175,-6.0174,-6.0181,-6.0178,-6.0186,-6.0172,-6.0174,-6.0183,-6.018,-6.0197,-6.0177,-6.0188,-6.0189,-6.0191,-6.0233,-6.0243,-6.0275,-6.0218,-6.0219,-6.0219,0,-6.0092,-6.0099,-6.0103,-6.0108,-6.0111,-6.0118,-6.013,-6.0137,-6.0143,-6.0144,-6.0155,-6.0163,-6.0154,-6.0156,-6.0149,-6.0158,-6.0185,-6.0146,-6.0146,-6.0156,-6.0213,-6.0223,-6.0228,-6.0178,-6.0179,-6.018,-6.0214,0,-6.0061,-6.0071,-6.008,-6.0087,-6.0092,-6.0103,-6.0099,-6.0104,-6.0099,-6.0097,-6.0109,-6.0106,-6.0111,-6.0113,-6.0106,-6.0129,-6.0124,-6.0113,-6.0097,-6.0124,-6.0136,-6.014,-6.0082,-6.0081,-6.0081,-6.008,0,0,-6.003,-6.0044,-6.0038,-6.0049,-6.0053,-6.0041,-6.0055,-6.0056,-6.0058,-6.006,-6.0051,-6.0062,-6.006,-6.0075,-6.0083,-6.0083,-6.0087,-6.0077,-6.0111,-6.0114,-6.0118,-6.013,-6.0134,-6.008,-6.0079,-6.0079,-6.0079,0,-6.0018,-6.0019,-6.0032,-6.0033,-6.0036,-6.0032,-6.0036,-6.0034,-6.0033,-6.0044,-6.0032,-6.0038,-6.0045,-6.0045,-6.0046,-6.0075,-6.0065,-6.0076,-6.0096,-6.0107,-6.0111,-6.0114,-6.0127,-6.0132,-6.0078,-6.0078,-6.0078,0,-5.9994,-5.9994,-5.9999,-6.0005,-6.0006,-6.0014,-5.9998,-6.0006,-6.0012,-5.9995,-6.0006,-6.0003,-6.0001,-6.0015,-6.0021,-6.0012,-6.0046,-6.0032,-6.0035,-6.0035,-6.0046,-6.005,-6.0055,-5.9998,-5.9998,-5.9998,0,0,-5.9983,-5.9992,-5.9989,-6.0002,-6.0003,-5.9998,-6.0,-5.9995,-5.9995,-5.9994,-5.999,-5.9989,-5.9994,-5.9996,-5.9999,-6.0014,-6.0014,-6.0023,-6.0027,-6.003,-6.0032,-6.0043,-6.0048,-5.9997,-5.9997,-5.9997,0,0,-5.9977,-5.9976,-5.9971,-5.9985,-5.9987,-5.9983,-5.9991,-5.9984,-5.9986,-5.9984,-5.9972,-5.9971,-5.9983,-5.998,-5.9969,-5.9993,-5.9977,-5.9979,-5.9995,-6.0,-6.0003,-6.0004,-5.995,0,0,0,0,0,-5.9962,-5.9977,-5.9972,-5.9974,-5.9979,-5.9987,-5.9987,-5.9979,-5.997,-5.9976,-5.9972,-5.996,-5.9973,-5.9963,-5.9964,-5.9975,-5.9986,-5.9988,-5.999,-6.0013,-6.0018,-6.0022,0,0,0,0,0,0,-5.9963,-5.9965,-5.9972,-5.9969,-5.997,-5.9986,-5.9968,-5.9966,-5.9969,-5.9967,-5.9962,-5.996,-5.9952,-5.9962,-5.9963,-5.9974,-5.9949,-5.9987,-5.9988,-5.999,-6.0015,-6.0019,-6.0022,0,0,0,0,0,-5.9963,-5.9965,-5.9975,-5.9969,-5.997,-5.9963,-5.9968,-5.9966,-5.9967,-5.9959,-5.9957,-5.9961,-5.9952,-5.9952,-5.9962,-5.9974,-5.9949,-5.9949,-5.9988,-5.9989,-5.999,-6.0017,0,0,0,0,0,0,-5.9963,-5.9963,-5.9975,-5.9975,-5.9962,-5.9962,-5.9962,-5.9966,-5.996,-5.9958,-5.9958,-5.9957,-5.9953,-5.9953,-5.9953,-5.9975,-5.9948,-5.9949,-5.9949,-5.9989,-5.999,-5.9991,0,0,0,0,0,0,-5.9962,-5.9963,-5.9975,-5.9968,-5.9967,-5.9961,-5.9961,-5.9967,-5.9959,-5.9959,-5.9957,-5.9958,-5.9952,-5.9953,-5.9953,-5.9963,-5.9948,-5.9948,-5.9948,-5.9949,-5.999,-5.999,0,0,0,0,0,0,-5.9962,-5.9963,-5.9968,-5.9967,-5.9966,-5.9965,-5.9966,-5.9971,-5.9956,-5.9959,-5.9954,-5.9953,-5.9952,-5.9952,-5.9953,-5.9963,-5.9963,-5.9948,-5.9948,-5.9948,-5.9948,0,0,0,0,0,0,0,-5.9962,-5.9959,-5.9976,-5.9966,-5.9965,-5.9975,-5.9975,-5.9975,-5.9955,-5.9955,-5.9954,-5.9953,-5.9946,-5.9946,-5.9947,-5.9963,0,0,-5.9948,-5.9948,0,0,0,0,0,0,0,0,-5.9958,-5.9959,-5.9976,-5.9976,-5.9976,-5.9975,-5.9975,-5.9975,-5.9955,-5.9955,-5.9954,-5.9954,-5.9946,-5.9946,-5.9947,0,0,0,0,0,0,0,0,0,0,0,0,0,0,0,-5.9976,-5.9976,0,-5.9975,-5.9975,-5.9975,-5.9955,-5.9955,-5.9954,-5.9954,-5.9946,-5.9946,-5.9947,0,0,0,0,0,0,0,0,0,0,0,0,0,0,0,0,0,0,0,0,0,0,0,0,0,0,0,0,0,0,0,0,0,0,0,0,0,0,0,0,0,0,0,0,0,0,0,0,0,0,0,0,0,0,0,0,0,0,0,0,0,0,0,0,0,0,0,0,0]}]]]